Overview Statistics Trail Chart Weather Telemetry Raw packets
 

This is the latest recevied weather packets stored in our database for station/object K7OWW-2. If no packets are shown the sender has not sent any weather packets the latest 10 day(s).

<< 25 26 27 28 29 30 31 >>
Time Temp. Humidity Pressure Rain* Wind** Luminosity Snow
1788154134 8.33° C 63% 1017.5 hPa 0 mm - - -
1788153534 8.89° C 62% 1017.5 hPa 0 mm - - -
1788153236 8.89° C 61% 1017.5 hPa 0 mm - - -
1788152934 8.89° C 61% 1017.4 hPa 0 mm - - -
1788152334 9.44° C 61% 1017.5 hPa 0 mm - - -
1788151735 10° C 59% 1017.5 hPa 0 mm - - -
1788151436 10° C 58% 1017.4 hPa 0 mm - - -
1788151134 10.56° C 57% 1017.4 hPa 0 mm - - -
1788150534 11.11° C 55% 1017.4 hPa 0 mm - - -
1788149934 11.67° C 55% 1017.3 hPa 0 mm - - -
1788149637 11.67° C 54% 1017.2 hPa 0 mm - - -
1788149334 11.67° C 53% 1017.3 hPa 0 mm - - -
1788148734 12.78° C 52% 1017.2 hPa 0 mm - - -
1788148138 13.33° C 49% 1016.9 hPa 0 mm - - -
1788147837 13.33° C 48% 1016.9 hPa 0 mm - - -
1788146934 14.44° C 44% 1016.7 hPa 0 mm - - -
1788146334 15° C 43% 1016.6 hPa 0 mm - - -
1788146037 15.56° C 43% 1016.6 hPa 0 mm - - -
1788145734 15.56° C 41% 1016.6 hPa 0 mm - - -
1788145134 16.67° C 40% 1016.3 hPa 0 mm - - -
1788144534 17.22° C 38% 1016.3 hPa 0 mm - - -
1788144237 17.78° C 38% 1016.2 hPa 0 mm - - -
1788143934 17.78° C 37% 1016.2 hPa 0 mm - - -
1788143334 18.89° C 34% 1016.2 hPa 0 mm - - -
1788142744 19.44° C 32% 1016.2 hPa 0 mm - - -

* Rain latest hour (hover to see other rain measurements)
** Current wind speed in m/s (hover to see current wind gust speed)